Year,Month,Day,Hour,Minute,Value (Times are PST for temperature in C)
2021,06,02,00,00,18.10
2021,06,02,00,01,18.10
2021,06,02,00,02,18.00
2021,06,02,00,03,18.00
2021,06,02,00,04,17.90
2021,06,02,00,05,17.90
2021,06,02,00,06,17.90
2021,06,02,00,07,17.90
2021,06,02,00,08,17.80
2021,06,02,00,09,17.80
2021,06,02,00,10,17.80
2021,06,02,00,11,17.80
2021,06,02,00,12,17.70
2021,06,02,00,13,17.70
2021,06,02,00,14,17.70
2021,06,02,00,15,17.70
2021,06,02,00,16,17.70
2021,06,02,00,17,17.70
2021,06,02,00,18,17.60
2021,06,02,00,19,17.60
2021,06,02,00,20,17.60
2021,06,02,00,21,17.60
2021,06,02,00,22,17.60
2021,06,02,00,23,17.60
2021,06,02,00,24,17.60
2021,06,02,00,25,17.60
2021,06,02,00,26,17.60
2021,06,02,00,27,17.60
2021,06,02,00,28,17.50
2021,06,02,00,29,17.50
2021,06,02,00,30,17.50
2021,06,02,00,31,17.50
2021,06,02,00,32,17.50
2021,06,02,00,33,17.50
2021,06,02,00,34,17.50
2021,06,02,00,35,17.50
2021,06,02,00,36,17.50
2021,06,02,00,37,17.60
2021,06,02,00,38,17.60
2021,06,02,00,39,17.50
2021,06,02,00,40,17.50
2021,06,02,00,41,17.50
2021,06,02,00,42,17.50
2021,06,02,00,43,17.50
2021,06,02,00,44,17.40
2021,06,02,00,45,17.40
2021,06,02,00,46,17.40
2021,06,02,00,47,17.40
2021,06,02,00,48,17.40
2021,06,02,00,49,17.40
2021,06,02,00,50,17.40
2021,06,02,00,51,17.40
2021,06,02,00,52,17.30
2021,06,02,00,53,17.30
2021,06,02,00,54,17.30
2021,06,02,00,55,17.30
2021,06,02,00,56,17.30
2021,06,02,00,57,17.30
2021,06,02,00,58,17.30
2021,06,02,00,59,17.30
2021,06,02,01,00,17.30
2021,06,02,01,01,17.30
2021,06,02,01,02,17.30
2021,06,02,01,03,17.30
2021,06,02,01,04,17.30
2021,06,02,01,05,17.30
2021,06,02,01,06,17.30
2021,06,02,01,07,17.30
2021,06,02,01,08,17.30
2021,06,02,01,09,17.30
2021,06,02,01,10,17.30
2021,06,02,01,11,17.30
2021,06,02,01,12,17.30
2021,06,02,01,13,17.20
2021,06,02,01,14,17.20
2021,06,02,01,15,17.20
2021,06,02,01,16,17.20
2021,06,02,01,17,17.20
2021,06,02,01,18,17.30
2021,06,02,01,19,17.30
2021,06,02,01,20,17.30
2021,06,02,01,21,17.30
2021,06,02,01,22,17.40
2021,06,02,01,23,17.40
2021,06,02,01,24,17.50
2021,06,02,01,25,17.50
2021,06,02,01,26,17.50
2021,06,02,01,27,17.50
2021,06,02,01,28,17.50
2021,06,02,01,29,17.50
2021,06,02,01,30,17.50
2021,06,02,01,31,17.40
2021,06,02,01,32,17.40
2021,06,02,01,33,17.40
2021,06,02,01,34,17.40
2021,06,02,01,35,17.30
2021,06,02,01,36,17.30
2021,06,02,01,37,17.30
2021,06,02,01,38,17.20
2021,06,02,01,39,17.20
2021,06,02,01,40,17.10
2021,06,02,01,41,17.00
2021,06,02,01,42,16.90
2021,06,02,01,43,16.90
2021,06,02,01,44,16.80
2021,06,02,01,45,16.80
2021,06,02,01,46,16.70
2021,06,02,01,47,16.60
2021,06,02,01,48,16.60
2021,06,02,01,49,16.50
2021,06,02,01,50,16.40
2021,06,02,01,51,16.40
2021,06,02,01,52,16.40
2021,06,02,01,53,16.30
2021,06,02,01,54,16.30
2021,06,02,01,55,16.30
2021,06,02,01,56,16.30
2021,06,02,01,57,16.30
2021,06,02,01,58,16.30
2021,06,02,01,59,16.30
2021,06,02,02,00,16.30
2021,06,02,02,01,16.30
2021,06,02,02,02,16.30
2021,06,02,02,03,16.30
2021,06,02,02,04,16.30
2021,06,02,02,05,16.30
2021,06,02,02,06,16.30
2021,06,02,02,07,16.30
2021,06,02,02,08,16.30
2021,06,02,02,09,16.30
2021,06,02,02,10,16.20
2021,06,02,02,11,16.20
2021,06,02,02,12,16.20
2021,06,02,02,13,16.20
2021,06,02,02,14,16.20
2021,06,02,02,15,16.20
2021,06,02,02,16,16.10
2021,06,02,02,17,16.10
2021,06,02,02,18,16.10
2021,06,02,02,19,16.10
2021,06,02,02,20,16.10
2021,06,02,02,21,16.00
2021,06,02,02,22,16.00
2021,06,02,02,23,16.00
2021,06,02,02,24,15.90
2021,06,02,02,25,15.90
2021,06,02,02,26,15.90
2021,06,02,02,27,15.90
2021,06,02,02,28,15.90
2021,06,02,02,29,15.80
2021,06,02,02,30,15.80
2021,06,02,02,31,15.80
2021,06,02,02,32,15.80
2021,06,02,02,33,15.80
2021,06,02,02,34,15.80
2021,06,02,02,35,15.80
2021,06,02,02,36,15.80
2021,06,02,02,37,15.80
2021,06,02,02,38,15.80
2021,06,02,02,39,15.80
2021,06,02,02,40,15.80
2021,06,02,02,41,15.80
2021,06,02,02,42,15.80
2021,06,02,02,43,15.80
2021,06,02,02,44,15.80
2021,06,02,02,45,15.80
2021,06,02,02,46,15.80
2021,06,02,02,47,15.80
2021,06,02,02,48,15.70
2021,06,02,02,49,15.70
2021,06,02,02,50,15.70
2021,06,02,02,51,15.70
2021,06,02,02,52,15.70
2021,06,02,02,53,15.70
2021,06,02,02,54,15.70
2021,06,02,02,55,15.70
2021,06,02,02,56,15.70
2021,06,02,02,57,15.60
2021,06,02,02,58,15.60
2021,06,02,02,59,15.60
2021,06,02,03,00,15.60
2021,06,02,03,01,15.60
2021,06,02,03,02,15.60
2021,06,02,03,03,15.60
2021,06,02,03,04,15.60
2021,06,02,03,05,15.60
2021,06,02,03,06,15.60
2021,06,02,03,07,15.60
2021,06,02,03,08,15.60
2021,06,02,03,09,15.60
2021,06,02,03,10,15.60
2021,06,02,03,11,15.60
2021,06,02,03,12,15.60
2021,06,02,03,13,15.60
2021,06,02,03,14,15.60
2021,06,02,03,15,15.60
2021,06,02,03,16,15.70
2021,06,02,03,17,15.70
2021,06,02,03,18,15.70
2021,06,02,03,19,15.70
2021,06,02,03,20,15.70
2021,06,02,03,21,15.70
2021,06,02,03,22,15.70
2021,06,02,03,23,15.70
2021,06,02,03,24,15.70
2021,06,02,03,25,15.70
2021,06,02,03,26,15.70
2021,06,02,03,27,15.70
2021,06,02,03,28,15.70
2021,06,02,03,29,15.70
2021,06,02,03,30,15.70
2021,06,02,03,31,15.70
2021,06,02,03,32,15.70
2021,06,02,03,33,15.70
2021,06,02,03,34,15.70
2021,06,02,03,35,15.70
2021,06,02,03,36,15.70
2021,06,02,03,37,15.80
2021,06,02,03,38,15.80
2021,06,02,03,39,15.80
2021,06,02,03,40,15.80
2021,06,02,03,41,15.80
2021,06,02,03,42,15.80
2021,06,02,03,43,15.90
2021,06,02,03,44,16.00
2021,06,02,03,45,16.00
2021,06,02,03,46,16.10
2021,06,02,03,47,16.20
2021,06,02,03,48,16.20
2021,06,02,03,49,16.20
2021,06,02,03,50,16.20
2021,06,02,03,51,16.20
2021,06,02,03,52,16.20
2021,06,02,03,53,16.10
2021,06,02,03,54,16.10
2021,06,02,03,55,16.10
2021,06,02,03,56,16.10
2021,06,02,03,57,16.10
2021,06,02,03,58,16.10
2021,06,02,03,59,16.00
2021,06,02,04,00,16.00
2021,06,02,04,01,15.90
2021,06,02,04,02,15.80
2021,06,02,04,03,15.80
2021,06,02,04,04,15.70
2021,06,02,04,05,15.60
2021,06,02,04,06,15.60
2021,06,02,04,07,15.60
2021,06,02,04,08,15.50
2021,06,02,04,09,15.50
2021,06,02,04,10,15.50
2021,06,02,04,11,15.40
2021,06,02,04,12,15.30
2021,06,02,04,13,15.30
2021,06,02,04,14,15.20
2021,06,02,04,15,15.10
2021,06,02,04,16,15.00
2021,06,02,04,17,14.90
2021,06,02,04,18,14.80
2021,06,02,04,19,14.80
2021,06,02,04,20,14.80
2021,06,02,04,21,14.70
2021,06,02,04,22,14.70
2021,06,02,04,23,14.70
2021,06,02,04,24,14.70
2021,06,02,04,25,14.70
2021,06,02,04,26,14.70
2021,06,02,04,27,14.70
2021,06,02,04,28,14.70
2021,06,02,04,29,14.70
2021,06,02,04,30,14.70
2021,06,02,04,31,14.70
2021,06,02,04,32,14.60
2021,06,02,04,33,14.60
2021,06,02,04,34,14.60
2021,06,02,04,35,14.50
2021,06,02,04,36,14.50
2021,06,02,04,37,14.40
2021,06,02,04,38,14.40
2021,06,02,04,39,14.40
2021,06,02,04,40,14.40
2021,06,02,04,41,14.40
2021,06,02,04,42,14.40
2021,06,02,04,43,14.40
2021,06,02,04,44,14.50
2021,06,02,04,45,14.50
2021,06,02,04,46,14.50
2021,06,02,04,47,14.50
2021,06,02,04,48,14.50
2021,06,02,04,49,14.50
2021,06,02,04,50,14.60
2021,06,02,04,51,14.60
2021,06,02,04,52,14.60
2021,06,02,04,53,14.60
2021,06,02,04,54,14.60
2021,06,02,04,55,14.60
2021,06,02,04,56,14.60
2021,06,02,04,57,14.50
2021,06,02,04,58,14.50
2021,06,02,04,59,14.50
2021,06,02,05,00,14.40
2021,06,02,05,01,14.40
2021,06,02,05,02,14.40
2021,06,02,05,03,14.40
2021,06,02,05,04,14.30
2021,06,02,05,05,14.30
2021,06,02,05,06,14.30
2021,06,02,05,07,14.30
2021,06,02,05,08,14.30
2021,06,02,05,09,14.30
2021,06,02,05,10,14.30
2021,06,02,05,11,14.20
2021,06,02,05,12,14.20
2021,06,02,05,13,14.20
2021,06,02,05,14,14.20
2021,06,02,05,15,14.20
2021,06,02,05,16,14.20
2021,06,02,05,17,14.20
2021,06,02,05,18,14.20
2021,06,02,05,19,14.20
2021,06,02,05,20,14.20
2021,06,02,05,21,14.20
2021,06,02,05,22,14.20
2021,06,02,05,23,14.20
2021,06,02,05,24,14.20
2021,06,02,05,25,14.20
2021,06,02,05,26,14.20
2021,06,02,05,27,14.20
2021,06,02,05,28,14.20
2021,06,02,05,29,14.20
2021,06,02,05,30,14.20
2021,06,02,05,31,14.20
2021,06,02,05,32,14.30
2021,06,02,05,33,14.30
2021,06,02,05,34,14.30
2021,06,02,05,35,14.30
2021,06,02,05,36,14.30
2021,06,02,05,37,14.30
2021,06,02,05,38,14.30
2021,06,02,05,39,14.30
2021,06,02,05,40,14.30
2021,06,02,05,41,14.30
2021,06,02,05,42,14.30
2021,06,02,05,43,14.40
2021,06,02,05,44,14.40
2021,06,02,05,45,14.40
2021,06,02,05,46,14.50
2021,06,02,05,47,14.50
2021,06,02,05,48,14.50
2021,06,02,05,49,14.50
2021,06,02,05,50,14.50
2021,06,02,05,51,14.50
2021,06,02,05,52,14.50
2021,06,02,05,53,14.50
2021,06,02,05,54,14.50
2021,06,02,05,55,14.40
2021,06,02,05,56,14.40
2021,06,02,05,57,14.30
2021,06,02,05,58,14.30
2021,06,02,05,59,14.30
2021,06,02,06,00,14.30
2021,06,02,06,01,14.30
2021,06,02,06,02,14.30
2021,06,02,06,03,14.30
2021,06,02,06,04,14.30
2021,06,02,06,05,14.30
2021,06,02,06,06,14.20
2021,06,02,06,07,14.20
2021,06,02,06,08,14.20
2021,06,02,06,09,14.20
2021,06,02,06,10,14.20
2021,06,02,06,11,14.20
2021,06,02,06,12,14.20
2021,06,02,06,13,14.20
2021,06,02,06,14,14.20
2021,06,02,06,15,14.20
2021,06,02,06,16,14.30
2021,06,02,06,17,14.30
2021,06,02,06,18,14.40
2021,06,02,06,19,14.50
2021,06,02,06,20,14.50
2021,06,02,06,21,14.70
2021,06,02,06,22,14.80
2021,06,02,06,23,14.80
2021,06,02,06,24,14.90
2021,06,02,06,25,15.00
2021,06,02,06,26,15.10
2021,06,02,06,27,15.20
2021,06,02,06,28,15.20
2021,06,02,06,29,15.30
2021,06,02,06,30,15.40
2021,06,02,06,31,15.40
2021,06,02,06,32,15.50
2021,06,02,06,33,15.50
2021,06,02,06,34,15.50
2021,06,02,06,35,15.60
2021,06,02,06,36,15.60
2021,06,02,06,37,15.60
2021,06,02,06,38,15.60
2021,06,02,06,39,15.60
2021,06,02,06,40,15.60
2021,06,02,06,41,15.60
2021,06,02,06,42,15.60
2021,06,02,06,43,15.60
2021,06,02,06,44,15.60
2021,06,02,06,45,15.60
2021,06,02,06,46,15.60
2021,06,02,06,47,15.60
2021,06,02,06,48,15.60
2021,06,02,06,49,15.60
2021,06,02,06,50,15.60
2021,06,02,06,51,15.60
2021,06,02,06,52,15.60
2021,06,02,06,53,15.60
2021,06,02,06,54,15.60
2021,06,02,06,55,15.60
2021,06,02,06,56,15.60
2021,06,02,06,57,15.70
2021,06,02,06,58,15.60
2021,06,02,06,59,15.60
2021,06,02,07,00,15.70
2021,06,02,07,01,15.70
2021,06,02,07,02,15.70
2021,06,02,07,03,15.70
2021,06,02,07,04,15.70
2021,06,02,07,05,15.70
2021,06,02,07,06,15.70
2021,06,02,07,07,15.80
2021,06,02,07,08,15.80
2021,06,02,07,09,15.80
2021,06,02,07,10,15.80
2021,06,02,07,11,15.80
2021,06,02,07,12,15.80
2021,06,02,07,13,15.90
2021,06,02,07,14,15.90
2021,06,02,07,15,15.90
2021,06,02,07,16,15.90
2021,06,02,07,17,15.90
2021,06,02,07,18,16.00
2021,06,02,07,19,16.00
2021,06,02,07,20,16.10
2021,06,02,07,21,16.10
2021,06,02,07,22,16.20
2021,06,02,07,23,16.20
2021,06,02,07,24,16.20
2021,06,02,07,25,16.30
2021,06,02,07,26,16.30
2021,06,02,07,27,16.40
2021,06,02,07,28,16.40
2021,06,02,07,29,16.40
2021,06,02,07,30,16.50
2021,06,02,07,31,16.60
2021,06,02,07,32,16.70
2021,06,02,07,33,16.70
2021,06,02,07,34,16.80
2021,06,02,07,35,16.90
2021,06,02,07,36,17.00
2021,06,02,07,37,17.10
2021,06,02,07,38,17.10
2021,06,02,07,39,17.20
2021,06,02,07,40,17.30
2021,06,02,07,41,17.40
2021,06,02,07,42,17.50
2021,06,02,07,43,17.60
2021,06,02,07,44,17.70
2021,06,02,07,45,17.70
2021,06,02,07,46,17.80
2021,06,02,07,47,17.80
2021,06,02,07,48,17.90
2021,06,02,07,49,18.00
2021,06,02,07,50,18.00
2021,06,02,07,51,18.00
2021,06,02,07,52,18.10
2021,06,02,07,53,18.10
2021,06,02,07,54,18.20
2021,06,02,07,55,18.20
2021,06,02,07,56,18.30
2021,06,02,07,57,18.30
2021,06,02,07,58,18.40
2021,06,02,07,59,18.40
2021,06,02,08,00,18.50
2021,06,02,08,01,18.70
2021,06,02,08,02,18.80
2021,06,02,08,03,18.90
2021,06,02,08,04,19.00
2021,06,02,08,05,19.00
2021,06,02,08,06,19.10
2021,06,02,08,07,19.20
2021,06,02,08,08,19.30
2021,06,02,08,09,19.30
2021,06,02,08,10,19.40
2021,06,02,08,11,19.50
2021,06,02,08,12,19.70
2021,06,02,08,13,19.80
2021,06,02,08,14,19.90
2021,06,02,08,15,19.90
2021,06,02,08,16,20.00
2021,06,02,08,17,20.00
2021,06,02,08,18,20.00
2021,06,02,08,19,20.00
2021,06,02,08,20,20.10
2021,06,02,08,21,20.10
2021,06,02,08,22,20.10
2021,06,02,08,23,20.20
2021,06,02,08,24,20.20
2021,06,02,08,25,20.10
2021,06,02,08,26,20.10
2021,06,02,08,27,20.20
2021,06,02,08,28,20.30
2021,06,02,08,29,20.30
2021,06,02,08,30,20.40
2021,06,02,08,31,20.40
2021,06,02,08,32,20.50
2021,06,02,08,33,20.50
2021,06,02,08,34,20.60
2021,06,02,08,35,20.70
2021,06,02,08,36,20.80
2021,06,02,08,37,20.80
2021,06,02,08,38,20.70
2021,06,02,08,39,20.70
2021,06,02,08,40,20.70
2021,06,02,08,41,20.70
2021,06,02,08,42,20.70
2021,06,02,08,43,20.80
2021,06,02,08,44,20.90
2021,06,02,08,45,20.90
2021,06,02,08,46,20.90
2021,06,02,08,47,20.90
2021,06,02,08,48,21.00
2021,06,02,08,49,21.10
2021,06,02,08,50,21.10
2021,06,02,08,51,21.10
2021,06,02,08,52,21.00
2021,06,02,08,53,20.90
2021,06,02,08,54,20.90
2021,06,02,08,55,20.80
2021,06,02,08,56,20.70
2021,06,02,08,57,20.60
2021,06,02,08,58,20.60
2021,06,02,08,59,20.60
2021,06,02,09,00,20.50
2021,06,02,09,01,20.50
2021,06,02,09,02,20.50
2021,06,02,09,03,20.40
2021,06,02,09,04,20.40
2021,06,02,09,05,20.30
2021,06,02,09,06,20.20
2021,06,02,09,07,20.20
2021,06,02,09,08,20.20
2021,06,02,09,09,20.20
2021,06,02,09,10,20.20
2021,06,02,09,11,20.20
2021,06,02,09,12,20.20
2021,06,02,09,13,20.30
2021,06,02,09,14,20.40
2021,06,02,09,15,20.50
2021,06,02,09,16,20.50
2021,06,02,09,17,20.50
2021,06,02,09,18,20.50
2021,06,02,09,19,20.60
2021,06,02,09,20,20.60
2021,06,02,09,21,20.70
2021,06,02,09,22,20.70
2021,06,02,09,23,20.80
2021,06,02,09,24,20.80
2021,06,02,09,25,20.80
2021,06,02,09,26,20.80
2021,06,02,09,27,20.80
2021,06,02,09,28,20.80
2021,06,02,09,29,20.90
2021,06,02,09,30,21.10
2021,06,02,09,31,21.20
2021,06,02,09,32,21.30
2021,06,02,09,33,21.40
2021,06,02,09,34,21.50
2021,06,02,09,35,21.60
2021,06,02,09,36,21.70
2021,06,02,09,37,21.70
2021,06,02,09,38,21.70
2021,06,02,09,39,21.80
2021,06,02,09,40,21.80
2021,06,02,09,41,21.80
2021,06,02,09,42,21.80
2021,06,02,09,43,21.90
2021,06,02,09,44,22.00
2021,06,02,09,45,22.00
2021,06,02,09,46,22.10
2021,06,02,09,47,22.00
2021,06,02,09,48,21.90
2021,06,02,09,49,21.90
2021,06,02,09,50,21.90
2021,06,02,09,51,21.90
2021,06,02,09,52,21.90
2021,06,02,09,53,21.90
2021,06,02,09,54,21.90
2021,06,02,09,55,22.00
2021,06,02,09,56,22.10
2021,06,02,09,57,22.20
2021,06,02,09,58,22.30
2021,06,02,09,59,22.30
2021,06,02,10,00,22.20
2021,06,02,10,01,22.10
2021,06,02,10,02,22.10
2021,06,02,10,03,22.10
2021,06,02,10,04,22.10
2021,06,02,10,05,22.10
2021,06,02,10,06,22.10
2021,06,02,10,07,22.10
2021,06,02,10,08,22.10
2021,06,02,10,09,22.10
2021,06,02,10,10,22.20
2021,06,02,10,11,22.20
2021,06,02,10,12,22.20
2021,06,02,10,13,22.20
2021,06,02,10,14,22.20
2021,06,02,10,15,22.30
2021,06,02,10,16,22.40
2021,06,02,10,17,22.40
2021,06,02,10,18,22.40
2021,06,02,10,19,22.40
2021,06,02,10,20,22.40
2021,06,02,10,21,22.40
2021,06,02,10,22,22.50
2021,06,02,10,23,22.50
2021,06,02,10,24,22.60
2021,06,02,10,25,22.70
2021,06,02,10,26,22.70
2021,06,02,10,27,22.80
2021,06,02,10,28,22.80
2021,06,02,10,29,22.80
2021,06,02,10,30,22.80
2021,06,02,10,31,22.80
2021,06,02,10,32,22.80
2021,06,02,10,33,22.70
2021,06,02,10,34,22.70
2021,06,02,10,35,22.70
2021,06,02,10,36,22.70
2021,06,02,10,37,22.60
2021,06,02,10,38,22.60
2021,06,02,10,39,22.70
2021,06,02,10,40,22.70
2021,06,02,10,41,22.80
2021,06,02,10,42,22.70
2021,06,02,10,43,22.60
2021,06,02,10,44,22.60
2021,06,02,10,45,22.50
2021,06,02,10,46,22.50
2021,06,02,10,47,22.60
2021,06,02,10,48,22.70
2021,06,02,10,49,22.90
2021,06,02,10,50,23.00
2021,06,02,10,51,23.10
2021,06,02,10,52,23.20
2021,06,02,10,53,23.10
2021,06,02,10,54,23.00
2021,06,02,10,55,22.90
2021,06,02,10,56,22.90
2021,06,02,10,57,22.80
2021,06,02,10,58,22.80
2021,06,02,10,59,22.90
2021,06,02,11,00,23.00
2021,06,02,11,01,23.20
2021,06,02,11,02,23.30
2021,06,02,11,03,23.50
2021,06,02,11,04,23.60
2021,06,02,11,05,23.50
2021,06,02,11,06,23.50
2021,06,02,11,07,23.60
2021,06,02,11,08,23.70
2021,06,02,11,09,23.70
2021,06,02,11,10,23.60
2021,06,02,11,11,23.60
2021,06,02,11,12,23.60
2021,06,02,11,13,23.60
2021,06,02,11,14,23.40
2021,06,02,11,15,23.30
2021,06,02,11,16,23.30
2021,06,02,11,17,23.20
2021,06,02,11,18,23.20
2021,06,02,11,19,23.20
2021,06,02,11,20,23.30
2021,06,02,11,21,23.30
2021,06,02,11,22,23.40
2021,06,02,11,23,23.50
2021,06,02,11,24,23.60
2021,06,02,11,25,23.60
2021,06,02,11,26,23.60
2021,06,02,11,27,23.70
2021,06,02,11,28,23.80
2021,06,02,11,29,23.80
2021,06,02,11,30,23.80
2021,06,02,11,31,23.70
2021,06,02,11,32,23.70
2021,06,02,11,33,23.60
2021,06,02,11,34,23.50
2021,06,02,11,35,23.60
2021,06,02,11,36,23.60
2021,06,02,11,37,23.70
2021,06,02,11,38,23.80
2021,06,02,11,39,23.90
2021,06,02,11,40,23.90
2021,06,02,11,41,24.00
2021,06,02,11,42,23.90
2021,06,02,11,43,23.90
2021,06,02,11,44,23.80
2021,06,02,11,45,23.90
2021,06,02,11,46,24.00
2021,06,02,11,47,24.10
2021,06,02,11,48,24.10
2021,06,02,11,49,24.10
2021,06,02,11,50,24.10
2021,06,02,11,51,24.20
2021,06,02,11,52,24.30
2021,06,02,11,53,24.50
2021,06,02,11,54,24.50
2021,06,02,11,55,24.60
2021,06,02,11,56,24.70
2021,06,02,11,57,24.80
2021,06,02,11,58,24.80
2021,06,02,11,59,24.80
2021,06,02,12,00,24.80
2021,06,02,12,01,24.80
2021,06,02,12,02,24.70
2021,06,02,12,03,24.80
2021,06,02,12,04,24.70
2021,06,02,12,05,24.60
2021,06,02,12,06,24.50
2021,06,02,12,07,24.40
2021,06,02,12,08,24.40
2021,06,02,12,09,24.50
2021,06,02,12,10,24.60
2021,06,02,12,11,24.60
2021,06,02,12,12,24.70
2021,06,02,12,13,24.70
2021,06,02,12,14,24.60
2021,06,02,12,15,24.60
2021,06,02,12,16,24.60
2021,06,02,12,17,24.60
2021,06,02,12,18,24.60
2021,06,02,12,19,24.60
2021,06,02,12,20,24.60
2021,06,02,12,21,24.60
2021,06,02,12,22,24.50
2021,06,02,12,23,24.50
2021,06,02,12,24,24.60
2021,06,02,12,25,24.80
2021,06,02,12,26,24.90
2021,06,02,12,27,25.00
2021,06,02,12,28,25.00
2021,06,02,12,29,24.80
2021,06,02,12,30,24.70
2021,06,02,12,31,24.60
2021,06,02,12,32,24.60
2021,06,02,12,33,24.60
2021,06,02,12,34,24.60
2021,06,02,12,35,24.70
2021,06,02,12,36,24.70
2021,06,02,12,37,24.60
2021,06,02,12,38,24.50
2021,06,02,12,39,24.40
2021,06,02,12,40,24.40
2021,06,02,12,41,24.30
2021,06,02,12,42,24.30
2021,06,02,12,43,24.40
2021,06,02,12,44,24.40
2021,06,02,12,45,24.50
2021,06,02,12,46,24.50
2021,06,02,12,47,24.60
2021,06,02,12,48,24.60
2021,06,02,12,49,24.70
2021,06,02,12,50,24.70
2021,06,02,12,51,24.70
2021,06,02,12,52,24.70
2021,06,02,12,53,24.70
2021,06,02,12,54,24.60
2021,06,02,12,55,24.60
2021,06,02,12,56,24.70
2021,06,02,12,57,24.80
2021,06,02,12,58,24.80
2021,06,02,12,59,25.00
2021,06,02,13,00,25.10
2021,06,02,13,01,25.30
2021,06,02,13,02,25.30
2021,06,02,13,03,25.30
2021,06,02,13,04,25.10
2021,06,02,13,05,24.90
2021,06,02,13,06,24.70
2021,06,02,13,07,24.40
2021,06,02,13,08,24.20
2021,06,02,13,09,24.00
2021,06,02,13,10,23.90
2021,06,02,13,11,23.70
2021,06,02,13,12,23.60
2021,06,02,13,13,23.60
2021,06,02,13,14,23.60
2021,06,02,13,15,23.60
2021,06,02,13,16,23.60
2021,06,02,13,17,23.70
2021,06,02,13,18,23.70
2021,06,02,13,19,23.50
2021,06,02,13,20,23.20
2021,06,02,13,21,23.20
2021,06,02,13,22,23.10
2021,06,02,13,23,23.00
2021,06,02,13,24,23.00
2021,06,02,13,25,23.10
2021,06,02,13,26,23.20
2021,06,02,13,27,23.30
2021,06,02,13,28,23.20
2021,06,02,13,29,23.20
2021,06,02,13,30,23.30
2021,06,02,13,31,23.40
2021,06,02,13,32,23.60
2021,06,02,13,33,23.80
2021,06,02,13,34,23.90
2021,06,02,13,35,24.00
2021,06,02,13,36,24.10
2021,06,02,13,37,24.00
2021,06,02,13,38,24.00
2021,06,02,13,39,24.10
2021,06,02,13,40,24.20
2021,06,02,13,41,24.40
2021,06,02,13,42,24.50
2021,06,02,13,43,24.50
2021,06,02,13,44,24.60
2021,06,02,13,45,24.70
2021,06,02,13,46,24.90
2021,06,02,13,47,25.10
2021,06,02,13,48,25.20
2021,06,02,13,49,25.40
2021,06,02,13,50,25.50
2021,06,02,13,51,25.70
2021,06,02,13,52,25.90
2021,06,02,13,53,26.00
2021,06,02,13,54,26.10
2021,06,02,13,55,26.20
2021,06,02,13,56,26.20
2021,06,02,13,57,26.30
2021,06,02,13,58,26.30
2021,06,02,13,59,26.20
2021,06,02,14,00,26.10
2021,06,02,14,01,26.10
2021,06,02,14,02,26.10
2021,06,02,14,03,26.10
2021,06,02,14,04,26.20
2021,06,02,14,05,26.20
2021,06,02,14,06,26.30
2021,06,02,14,07,26.40
2021,06,02,14,08,26.50
2021,06,02,14,09,26.60
2021,06,02,14,10,26.70
2021,06,02,14,11,26.80
2021,06,02,14,12,26.80
2021,06,02,14,13,26.90
2021,06,02,14,14,26.90
2021,06,02,14,15,26.80
2021,06,02,14,16,26.90
2021,06,02,14,17,26.90
2021,06,02,14,18,26.80
2021,06,02,14,19,26.80
2021,06,02,14,20,26.80
2021,06,02,14,21,26.80
2021,06,02,14,22,26.80
2021,06,02,14,23,26.90
2021,06,02,14,24,26.90
2021,06,02,14,25,26.90
2021,06,02,14,26,26.90
2021,06,02,14,27,26.90
2021,06,02,14,28,26.90
2021,06,02,14,29,26.90
2021,06,02,14,30,26.90
2021,06,02,14,31,26.80
2021,06,02,14,32,26.70
2021,06,02,14,33,26.80
2021,06,02,14,34,26.80
2021,06,02,14,35,26.90
2021,06,02,14,36,27.00
2021,06,02,14,37,27.10
2021,06,02,14,38,27.20
2021,06,02,14,39,27.20
2021,06,02,14,40,27.10
2021,06,02,14,41,27.10
2021,06,02,14,42,27.10
2021,06,02,14,43,27.10
2021,06,02,14,44,27.10
2021,06,02,14,45,27.00
2021,06,02,14,46,27.00
2021,06,02,14,47,26.90
2021,06,02,14,48,26.80
2021,06,02,14,49,26.80
2021,06,02,14,50,26.80
2021,06,02,14,51,26.90
2021,06,02,14,52,26.90
2021,06,02,14,53,26.90
2021,06,02,14,54,26.90
2021,06,02,14,55,27.00
2021,06,02,14,56,27.00
2021,06,02,14,57,27.00
2021,06,02,14,58,26.90
2021,06,02,14,59,26.80
2021,06,02,15,00,26.70
2021,06,02,15,01,26.70
2021,06,02,15,02,26.60
2021,06,02,15,03,26.50
2021,06,02,15,04,26.40
2021,06,02,15,05,26.40
2021,06,02,15,06,26.50
2021,06,02,15,07,26.50
2021,06,02,15,08,26.50
2021,06,02,15,09,26.50
2021,06,02,15,10,26.50
2021,06,02,15,11,26.50
2021,06,02,15,12,26.50
2021,06,02,15,13,26.50
2021,06,02,15,14,26.50
2021,06,02,15,15,26.50
2021,06,02,15,16,26.50
2021,06,02,15,17,26.40
2021,06,02,15,18,26.30
2021,06,02,15,19,26.30
2021,06,02,15,20,26.30
2021,06,02,15,21,26.30
2021,06,02,15,22,26.40
2021,06,02,15,23,26.50
2021,06,02,15,24,26.60
2021,06,02,15,25,26.70
2021,06,02,15,26,26.70
2021,06,02,15,27,26.80
2021,06,02,15,28,26.70
2021,06,02,15,29,26.70
2021,06,02,15,30,26.80
2021,06,02,15,31,26.80
2021,06,02,15,32,26.90
2021,06,02,15,33,26.90
2021,06,02,15,34,26.90
2021,06,02,15,35,27.00
2021,06,02,15,36,27.10
2021,06,02,15,37,27.10
2021,06,02,15,38,27.20
2021,06,02,15,39,27.20
2021,06,02,15,40,27.10
2021,06,02,15,41,27.10
2021,06,02,15,42,27.20
2021,06,02,15,43,27.30
2021,06,02,15,44,27.30
2021,06,02,15,45,27.30
2021,06,02,15,46,27.20
2021,06,02,15,47,27.10
2021,06,02,15,48,27.20
2021,06,02,15,49,27.20
2021,06,02,15,50,27.30
2021,06,02,15,51,27.40
2021,06,02,15,52,27.40
2021,06,02,15,53,27.30
2021,06,02,15,54,27.20
2021,06,02,15,55,27.20
2021,06,02,15,56,27.10
2021,06,02,15,57,27.10
2021,06,02,15,58,27.10
2021,06,02,15,59,27.00
2021,06,02,16,00,27.00
2021,06,02,16,01,27.00
2021,06,02,16,02,27.00
2021,06,02,16,03,26.90
2021,06,02,16,04,26.90
2021,06,02,16,05,26.90
2021,06,02,16,06,26.80
2021,06,02,16,07,26.70
2021,06,02,16,08,26.70
2021,06,02,16,09,26.70
2021,06,02,16,10,26.80
2021,06,02,16,11,26.90
2021,06,02,16,12,26.80
2021,06,02,16,13,26.80
2021,06,02,16,14,26.70
2021,06,02,16,15,26.70
2021,06,02,16,16,26.70
2021,06,02,16,17,26.80
2021,06,02,16,18,26.90
2021,06,02,16,19,27.00
2021,06,02,16,20,27.10
2021,06,02,16,21,27.20
2021,06,02,16,22,27.20
2021,06,02,16,23,27.20
2021,06,02,16,24,27.20
2021,06,02,16,25,27.20
2021,06,02,16,26,27.20
2021,06,02,16,27,27.20
2021,06,02,16,28,27.20
2021,06,02,16,29,27.30
2021,06,02,16,30,27.30
2021,06,02,16,31,27.20
2021,06,02,16,32,27.20
2021,06,02,16,33,27.20
2021,06,02,16,34,27.20
2021,06,02,16,35,27.10
2021,06,02,16,36,27.10
2021,06,02,16,37,27.10
2021,06,02,16,38,27.20
2021,06,02,16,39,27.30
2021,06,02,16,40,27.30
2021,06,02,16,41,27.40
2021,06,02,16,42,27.40
2021,06,02,16,43,27.50
2021,06,02,16,44,27.50
2021,06,02,16,45,27.50
2021,06,02,16,46,27.50
2021,06,02,16,47,27.40
2021,06,02,16,48,27.40
2021,06,02,16,49,27.50
2021,06,02,16,50,27.50
2021,06,02,16,51,27.30
2021,06,02,16,52,27.20
2021,06,02,16,53,27.20
2021,06,02,16,54,27.20
2021,06,02,16,55,27.10
2021,06,02,16,56,27.00
2021,06,02,16,57,27.00
2021,06,02,16,58,27.00
2021,06,02,16,59,27.00
2021,06,02,17,00,27.00
2021,06,02,17,01,26.90
2021,06,02,17,02,26.90
2021,06,02,17,03,26.90
2021,06,02,17,04,26.80
2021,06,02,17,05,26.80
2021,06,02,17,06,26.90
2021,06,02,17,07,26.90
2021,06,02,17,08,26.90
2021,06,02,17,09,26.90
2021,06,02,17,10,26.80
2021,06,02,17,11,26.80
2021,06,02,17,12,26.90
2021,06,02,17,13,26.90
2021,06,02,17,14,26.90
2021,06,02,17,15,26.90
2021,06,02,17,16,26.90
2021,06,02,17,17,26.80
2021,06,02,17,18,26.70
2021,06,02,17,19,26.70